TimeCDT,TemperatureF,Dew PointF,Humidity,Sea Level PressureIn,VisibilityMPH,Wind Direction,Wind SpeedMPH,Gust SpeedMPH,PrecipitationIn,Events,Conditions,WindDirDegrees,DateUTC
12:53 AM,57.0,46.9,69,30.03,10.0,ESE,13.8,21.9,N/A,,Overcast,110,2013-05-27 05:53:00
1:53 AM,57.9,46.0,65,30.02,10.0,ESE,12.7,-,N/A,,Overcast,120,2013-05-27 06:53:00
2:53 AM,57.0,46.9,69,30.01,10.0,ESE,12.7,-,N/A,,Overcast,120,2013-05-27 07:53:00
3:53 AM,57.0,48.0,72,29.97,10.0,East,9.2,-,N/A,,Overcast,100,2013-05-27 08:53:00
4:53 AM,57.0,48.9,74,29.97,10.0,East,9.2,-,N/A,,Overcast,100,2013-05-27 09:53:00
5:53 AM,57.0,48.9,74,29.98,9.0,ESE,10.4,-,N/A,,Overcast,110,2013-05-27 10:53:00
6:53 AM,55.9,50.0,80,29.99,3.0,ESE,6.9,-,N/A,,Haze,110,2013-05-27 11:53:00
6:59 AM,55.4,50.0,82,29.98,1.8,ESE,9.2,-,0.00,Rain,Light Rain,110,2013-05-27 11:59:00
7:06 AM,55.4,51.8,88,29.98,1.5,ESE,10.4,-,0.00,Rain,Light Rain,110,2013-05-27 12:06:00
7:34 AM,53.6,51.8,94,29.96,1.2,East,10.4,-,0.00,,Overcast,90,2013-05-27 12:34:00
7:53 AM,54.0,51.1,90,29.95,2.0,East,11.5,19.6,0.01,,Overcast,90,2013-05-27 12:53:00
8:11 AM,53.6,51.8,94,29.95,2.5,East,10.4,-,N/A,,Overcast,90,2013-05-27 13:11:00
8:14 AM,53.6,51.8,94,29.95,2.0,East,9.2,17.3,N/A,,Overcast,90,2013-05-27 13:14:00
8:23 AM,53.6,51.8,94,29.95,2.0,East,11.5,17.3,N/A,,Overcast,80,2013-05-27 13:23:00
8:53 AM,54.0,51.1,90,29.94,2.0,ENE,8.1,-,N/A,,Overcast,70,2013-05-27 13:53:00
9:11 AM,53.6,51.8,94,29.95,3.0,East,9.2,-,N/A,,Overcast,90,2013-05-27 14:11:00
9:53 AM,54.0,51.1,90,29.96,2.5,East,6.9,-,N/A,,Overcast,100,2013-05-27 14:53:00
10:33 AM,55.4,51.8,88,29.94,6.0,East,9.2,17.3,N/A,,Haze,100,2013-05-27 15:33:00
10:49 AM,55.4,51.8,88,29.93,8.0,East,9.2,-,N/A,,Overcast,100,2013-05-27 15:49:00
10:53 AM,55.9,51.1,84,29.93,8.0,East,10.4,-,N/A,,Overcast,100,2013-05-27 15:53:00
11:28 AM,57.2,51.8,82,29.90,9.0,East,11.5,-,N/A,,Mostly Cloudy,80,2013-05-27 16:28:00
11:37 AM,57.2,50.0,77,29.89,10.0,East,13.8,-,N/A,,Overcast,100,2013-05-27 16:37:00
11:53 AM,59.0,50.0,72,29.89,10.0,ESE,15.0,23.0,N/A,,Overcast,110,2013-05-27 16:53:00
12:53 PM,60.1,48.9,67,29.88,10.0,ESE,11.5,-,N/A,,Overcast,110,2013-05-27 17:53:00
1:53 PM,60.1,48.9,67,29.88,10.0,East,11.5,19.6,N/A,,Overcast,90,2013-05-27 18:53:00
2:53 PM,61.0,51.1,70,29.89,10.0,ENE,6.9,-,N/A,,Overcast,60,2013-05-27 19:53:00
3:53 PM,59.0,52.0,78,29.89,7.0,East,8.1,-,0.00,Rain,Light Rain,90,2013-05-27 20:53:00
4:53 PM,57.9,54.0,87,29.88,5.0,ENE,5.8,-,0.02,Rain,Light Rain,70,2013-05-27 21:53:00
5:03 PM,57.2,53.6,88,29.88,4.0,ENE,4.6,-,0.00,Rain,Light Rain,70,2013-05-27 22:03:00
5:53 PM,57.9,55.0,90,29.86,5.0,East,9.2,-,0.02,Rain,Light Rain,80,2013-05-27 22:53:00
6:53 PM,57.9,55.0,90,29.83,9.0,East,8.1,-,0.00,,Overcast,80,2013-05-27 23:53:00
7:53 PM,57.9,54.0,87,29.86,9.0,ENE,6.9,-,N/A,,Overcast,70,2013-05-28 00:53:00
8:21 PM,57.2,53.6,88,29.86,2.0,East,6.9,-,0.00,Rain,Light Rain,80,2013-05-28 01:21:00
8:30 PM,57.2,53.6,88,29.86,6.0,East,5.8,-,0.00,,Overcast,80,2013-05-28 01:30:00
8:53 PM,57.0,54.0,89,29.86,5.0,East,8.1,-,0.00,,Overcast,80,2013-05-28 01:53:00
9:53 PM,57.0,54.0,89,29.85,9.0,East,6.9,-,N/A,,Overcast,80,2013-05-28 02:53:00
10:53 PM,57.0,54.0,89,29.86,10.0,East,8.1,-,N/A,,Overcast,90,2013-05-28 03:53:00
11:53 PM,55.9,53.1,90,29.82,9.0,East,8.1,-,N/A,,Overcast,100,2013-05-28 04:53:00